Location: Unspecified
(58.7730°N, 5.8460°E)
Time: 17:14:43
(UTC+02:00)

Okean 3 - Visible Passes

Search period start: 29 March 2017 00:00
Search period end: 08 April 2017 00:00
Orbit: 577 x 603 km, 82.5° (Epoch: 27 March)

Date Brightness Start Highest point End Pass type
(mag) Time Alt. Az. Time Alt. Az. Time Alt. Az.
29 Mar 6.1 02:23:04 11° E 02:23:57 12° ENE 02:25:31 10° ENE visible
29 Mar 3.7 03:59:37 53° SSE 04:00:25 66° E 04:04:38 10° NNE visible
29 Mar 4.9 05:36:10 17° W 05:38:06 23° WNW 05:41:32 10° N visible
30 Mar 5.8 02:31:22 15° E 02:32:03 16° E 02:34:35 10° NE visible
30 Mar 3.4 04:07:55 59° S 04:08:42 88° ESE 04:12:58 10° NNE visible
30 Mar 5.2 05:44:28 13° W 05:46:37 18° NW 05:49:37 10° N visible
31 Mar 5.4 02:39:39 20° E 02:40:11 20° E 02:43:19 10° NE visible
31 Mar 3.4 04:16:12 53° SW 04:17:02 69° WNW 04:21:17 10° N visible
31 Mar 5.5 05:52:45 10° W 05:55:09 15° NW 05:57:35 10° NNW visible
01 Apr 5.0 02:47:55 26° E 02:48:20 27° E 02:51:54 10° NNE visible
01 Apr 3.8 04:24:28 42° WSW 04:25:24 51° WNW 04:29:33 10° N visible
01 Apr 5.7 06:02:07 10° WNW 06:03:43 12° NW 06:05:20 10° NNW visible
02 Apr 4.5 02:56:11 34° ESE 02:56:31 35° E 03:00:23 10° NNE visible
02 Apr 4.2 04:32:44 33° WSW 04:33:47 39° WNW 04:37:47 10° N visible
03 Apr 4.0 03:04:26 46° ESE 03:04:45 47° E 03:08:49 10° NNE visible
03 Apr 4.6 04:40:59 25° W 04:42:13 30° WNW 04:45:59 10° N visible
04 Apr 6.0 01:36:07 11° E 01:36:34 11° ENE 01:37:57 10° ENE visible
04 Apr 3.6 03:12:40 61° SE 03:13:01 64° E 03:17:12 10° NNE visible
04 Apr 4.9 04:49:13 20° W 04:50:41 23° WNW 04:54:07 10° N visible
05 Apr 5.7 01:44:20 15° E 01:44:39 15° E 01:47:06 10° NE visible
05 Apr 3.3 03:20:53 73° S 03:21:17 87° ESE 03:25:32 10° NNE visible
05 Apr 5.3 04:57:26 15° W 04:59:11 19° NW 05:02:12 10° N visible
06 Apr 5.4 01:52:33 20° E 01:52:46 20° E 01:55:50 10° NE visible
06 Apr 3.4 03:29:06 62° WSW 03:29:36 70° WNW 03:33:50 10° N visible
06 Apr 5.5 05:05:39 11° W 05:07:42 15° NW 05:10:10 10° NNW visible
07 Apr 5.0 02:00:45 26° E 02:00:55 26° E 02:04:26 10° NNE visible
07 Apr 3.7 03:37:18 47° WSW 03:37:58 52° WNW 03:42:06 10° N visible
07 Apr 5.7 05:14:37 10° WNW 05:16:16 12° NW 05:17:55 10° NNW visible
